SHT2P EGLL-EGCC

Flight info

Callsign SHT2P
Flight time N/A
Altitude 18000
Route ULTIB T420 ELVOS
Aircraft A320/M-SDE3FGHIRWY/LB1

Departure

Time 2026-05-06 20:34
Airport London Heathrow Airport (EGLL)

Arrival

Time N/A
Airport Manchester Airport (EGCC)
Time Latitude Longitude Altitude Speed Heading
2026-05-06 20:04 51.47233 -0.48585 86 ft 0 kts 270°
2026-05-06 20:26 51.47233 -0.48583 91 ft 2 kts 270°
2026-05-06 20:26 51.47233 -0.48543 88 ft 4 kts 270°
2026-05-06 20:27 51.47233 -0.48509 89 ft 4 kts 263°
2026-05-06 20:27 51.47242 -0.48478 87 ft 4 kts 200°
2026-05-06 20:27 51.47266 -0.48473 86 ft 4 kts 180°
2026-05-06 20:27 51.47272 -0.48473 86 ft 0 kts 180°
2026-05-06 20:30 51.47252 -0.48473 91 ft 9 kts 180°
2026-05-06 20:31 51.47177 -0.48473 86 ft 11 kts 180°
2026-05-06 20:31 51.47086 -0.48472 89 ft 14 kts 180°
2026-05-06 20:31 51.46975 -0.48471 88 ft 18 kts 180°
2026-05-06 20:31 51.46857 -0.48470 86 ft 12 kts 181°
2026-05-06 20:32 51.46790 -0.48470 86 ft 11 kts 179°
2026-05-06 20:32 51.46707 -0.48468 86 ft 14 kts 180°
2026-05-06 20:32 51.46630 -0.48468 86 ft 7 kts 180°
2026-05-06 20:32 51.46598 -0.48468 86 ft 4 kts 180°
2026-05-06 20:33 51.46586 -0.48468 87 ft 5 kts 179°
2026-05-06 20:33 51.46538 -0.48467 87 ft 9 kts 179°
2026-05-06 20:33 51.46486 -0.48457 89 ft 6 kts 147°
2026-05-06 20:33 51.46478 -0.48356 87 ft 17 kts 89°
2026-05-06 20:34 51.46481 -0.47808 87 ft 86 kts 90°
2026-05-06 20:34 51.46485 -0.46528 92 ft 140 kts 89°
2026-05-06 20:34 51.46490 -0.44811 482 ft 153 kts 87°
2026-05-06 20:34 51.46513 -0.43128 1250 ft 152 kts 85°
2026-05-06 20:35 51.46587 -0.41360 1677 ft 168 kts 76°
2026-05-06 20:35 51.47221 -0.39702 1993 ft 187 kts 44°
2026-05-06 20:35 51.48166 -0.38062 2367 ft 214 kts 47°
2026-05-06 20:35 51.49203 -0.36162 2885 ft 239 kts 48°
2026-05-06 20:36 51.50302 -0.34100 3680 ft 251 kts 49°
2026-05-06 20:36 51.51443 -0.31924 4696 ft 257 kts 49°
2026-05-06 20:36 51.52428 -0.29485 5618 ft 266 kts 67°
2026-05-06 20:36 51.53055 -0.26652 6603 ft 270 kts 66°
2026-05-06 20:37 51.54102 -0.24158 7497 ft 273 kts 41°
2026-05-06 20:37 51.55737 -0.22637 8410 ft 275 kts 14°
2026-05-06 20:37 51.57636 -0.22473 9327 ft 278 kts 348°
2026-05-06 20:37 51.59524 -0.23224 10240 ft 283 kts 346°
2026-05-06 20:38 51.61498 -0.24094 10602 ft 306 kts 340°
2026-05-06 20:38 51.63517 -0.25531 10870 ft 329 kts 330°
2026-05-06 20:38 51.65540 -0.27416 11396 ft 340 kts 329°
2026-05-06 20:38 51.67593 -0.29371 12123 ft 345 kts 329°
2026-05-06 20:39 51.69664 -0.31370 12899 ft 349 kts 328°
2026-05-06 20:39 51.71758 -0.33400 13693 ft 352 kts 328°
2026-05-06 20:39 51.73869 -0.35445 14398 ft 356 kts 328°
2026-05-06 20:39 51.75283 -0.36816 14836 ft 359 kts 328°